User: anonymous   Login
Location: Deuil
(48.9767°N, 2.3272°E)
Time: 18:02:56
(UTC+00:00)
Language:

CZ-4C R/B - Orbit

View from above orbital plane
View from above orbital plane
View from above satellite
View from above satellite

Ground track
Ground track

The orbit data is extracted from the following two-line orbital elements,

1 44623U 19066B   22222.56780129  .00005209  00000-0  21419-3 0  9995
2 44623  97.8843 215.6176 0119063  62.3772 298.9490 15.18296945157627
Epoch (UTC): 10 August 2022 13:37:38
Eccentricity: 0.0119063
inclination: 97.8843°
perigee height: 429 km
apogee height: 593 km
right ascension of ascending node: 215.6176°
argument of perigee: 62.3772°
revolutions per day: 15.18296945
mean anomaly at epoch: 298.9490°
orbit number at epoch: 15762

The dashed part of the orbit path shows where the satellite is in the earth's shadow,  

DLR